Weather in Sibay

Russia / Republic of Bashkortostan     52°43′13″N   58°39′59″E
temp.,
°C
wind,
m/s
gust,
m/s
humid.,
%
clouds,
%
prec.,
mm/h
press.,
hPa
HPBL,
m
14 may, fri
fri1423:00+18w22335 0.0 102611
02:00+16wnw22545 0.0 102612
05:00+15w11620 0.0 102711
08:00+19w11480 0.0 1027136
11:00+25sw23260 0.0 10271203
14:00+27sw44240 0.0 10262128
17:00+27wsw33220 0.0 10252100
20:00+23sw33340 0.0 102523
15 may, sat
sat1523:00+19wnw35460 0.0 102556
02:00+17wnw22490 0.0 102519
05:00+15w11500 0.0 102611
08:00+20wsw11410 0.0 1026136
11:00+26wsw21280 0.0 10251347
14:00+27nw22220 0.0 10242061
17:00+28nw13245 0.0 10232427
20:00+25sw22340 0.0 102211
16 may, sun
sun1623:00+20nnw33485 0.1 102329
02:00+18nw22535 0.0 102311
05:00+17nnw11554 0.0 102311
08:00+21nne11460 0.0 1024160
11:00+27sse11334 0.0 1023889
14:00+30ese03255 0.0 10222964
17:00+30wsw232223 0.0 10213409
20:00+25wnw333898 0.0 102137
17 may, mon
mon1723:00+19wnw115285 0.0 102211
02:00+19wnw115049 0.0 102211
05:00+18w115066 0.0 102211
08:00+22nw224340 0.0 1022155
11:00+27wnw23314 0.0 10211247
14:00+29w342472 0.0 10203337
17:00+23wnw11114795 0.1 1020418
20:00+19nw51155100 0.2 1019274
18 may, tue
tue1823:00+17wnw115513 0.3 102011
02:00+16sw22575 0.0 102012
05:00+16wnw225894 0.0 101913
08:00+20wnw22535 0.0 1019167
11:00+26n33363 0.0 1018975
14:00+29nw222712 0.0 10172935
17:00+29wnw33256 0.0 10162959
20:00+24nw234225 0.0 101645